IRIDIUM 33 DEB, 38028

Orbit data source: Space-Track

IRIDIUM 33 DEB, 38028 is space debris in LEO originally from a launch on Sun, 14 Sep 1997 UTC launched from the Tyuratam Missile And Space Complex (TTMTR). The debris from Iridium 33, an American commercial communications satellite, has been tracked extensively since its accidental collision with the defunct Russian satellite Cosmos 2251 in 2009. This event, occurring at high speed in low Earth orbit (LEO), generated thousands of pieces of space debris, significantly increasing the risk of further collisions. The Iridium 33 debris cloud has impacted space traffic management and orbital debris mitigation strategies, making it a subject of ongoing study in space situational awareness.

Loading next visibility...
Identifier
38028, 1997-051YQ
Orbit
LEO
Country
Flag of USUS
Related business
Manufacturer
Unknown
Mission
Spacecraft
Bus & Motor
Unknown
Mass
Unknown
Launch date (UTC)
1997-09-14 (29 years ago)
Launch vehicle
Unknown
Launch site
Tyuratam Missile And Space Complex (TTMTR)
Object type
Payload
Rocket body
Debris
Shape & HBR
Unknown shape, 0.1 m
Radar Cross Section
Small (<0.1 m²)

Expand to show TLE details & history
Last TLE update: 6 hours ago

TLE from 6 hours ago
0 IRIDIUM 33 DEB
1 38028U 97051YQ  26263.21017412  .00000702  00000-0  18749-3 0  9991
2 38028  86.3221 237.8070 0025281 268.0822  91.7485 14.46882113695640
Epoch: 2026-09-20T05:02Z
TLE epoch observation values (Epoch: 2026-09-20T05:02:39.043Z)
Latitude
-0.00009°
Longitude
163.03669°
Altitude
739.512 km
Speed
7.485 km/s
True Right ascension
15h 51m 13s
True Declination
0° 00' 00"
Sunlit
Object was in daylight at epoch
Visualization orbit readout
Latitude
Unknown
Longitude
Unknown
Altitude
Unknown
Speed
Unknown
Apparent Right ascension
Unknown
Apparent Declination
Unknown
Sunlit
N/A
Visualization observer readout
Local Sidereal Time
03:48:40
Azimuth
Unknown
Elevation
Unknown
Doppler factor
Unknown
Orbital elements
Apogee altitude
750.775 km
Perigee altitude
714.821 km
Semi-major axis
7,110.935 km
Eccentricity
0.00253
Inclination
86.3221°
RAAN
237.807°
Arg. of periapsis
268.0822°
True anomaly
92.03803°
Mean anomaly
91.7485°
Eccentric anomaly
91.89327°
Mean motion
3.61954 °/min
Orbital period
99.46 mins
BSTAR
0.00018749
Loading maneuver chart data...
Computing Atmospheric mass density...

Documentation

Showing up to 5 results
|